Regional Weather Roundup
Issued by NWS

Home | Current Version | Previous Version | Text Only | Print | Product List | Glossary Off
Versions: 1 2 3 4 5 6 7 8 9 10 11 12 13 14 15 16 17 18 19 20 21 22 23 24 25 26 27 28 29 30 31 32 33 34 35 36 37 38 39 40 41 42 43 44 45 46 47 48 49 50

000
ASUS43 KLOT 091700
RWRIL

ILLINOIS REGIONAL WEATHER ROUNDUP
NATIONAL WEATHER SERVICE CHICAGO/ROMEOVILLE IL
1200 PM CDT WED JUL 09 2014

NOTE: "FAIR" INDICATES FEW OR NO CLOUDS BELOW 12,000 FEET WITH NO
SIGNIFICANT WEATHER AND/OR OBSTRUCTIONS TO VISIBILITY.

* THESE STATIONS ARE NOT UNDER NWS QUALITY CONTROL. THEY ALSO MAY NOT
  REPORT WEATHER SUCH AS PRECIPITATION OR FOG.

ILZ001-002-007-009-015-016-024-091800-
NORTHWEST ILLINOIS

CITY           SKY/WX    TMP DP  RH WIND       PRES   REMARKS
MOLINE         SUNNY     76  50  40 NW12G21   30.01R
STERLING*      MOSUNNY   75  57  53 N7        30.00R
$$

ILZ003-004-008-010-011-017-018-091800-
NORTH CENTRAL ILLINOIS

CITY           SKY/WX    TMP DP  RH WIND       PRES   REMARKS
ROCKFORD       MOSUNNY   75  56  51 NW13      29.99R
$$

ILZ005-006-012>014-019>023-091800-
NORTHEAST ILLINOIS

CITY           SKY/WX    TMP DP  RH WIND       PRES   REMARKS
CHICAGO-OHARE  PTSUNNY   75  54  47 NW15      29.94S
CHICAGO-MIDWAY PTSUNNY   76  55  48 NW9       29.94S
AURORA         PTSUNNY   73  57  57 W8        29.97S
WAUKEGAN       PTSUNNY   72  55  55 NW6       29.94R
DUPAGE AIRPORT MOSUNNY   76  57  51 NW15      29.96R
WHEELING       MOSUNNY   75  57  53 NW10      29.95S
$$

LMZ740>746-091800-
SOUTHERN LAKE MICHIGAN

STATION/POSITION SKY/WX   TEMP    WIND        PRES    VSBY  WAVE
                          AIR SEA DIR/SP/G                  HT/PER
                          (F)     (DEG/KT/KT) (MB)    (MI)  (FT/S)
SOUTHERN BUOY              55 54  360/  4/  4 1014.4R         1
WAUKEGAN HARBOR            63     110/ 10/ 11 1015.2S
HARRISON CRIB              64      70/  7/  8   N/A
BURNHAM HARBOR             67      80/  7/  8   N/A
CALUMET HARBOR             66      60/  7/  9 1015.1R
MICHIGAN CITY              65     350/  7/ 10   N/A
$$

ILZ025>027-034>036-040-047-049-050-058-095>099-091800-
WEST-CENTRAL ILLINOIS

CITY           SKY/WX    TMP DP  RH WIND       PRES   REMARKS
QUINCY         SUNNY     77  55  46 NW13      30.04R
$$

ILZ028>032-037-038-041>044-048-051>054-059>061-091800-
CENTRAL ILLINOIS

CITY           SKY/WX    TMP DP  RH WIND       PRES   REMARKS
DECATUR        MOSUNNY   80  61  52 NW10      30.00R HX  81
PEORIA         SUNNY     77  55  46 NW12G18   30.00R
SPRINGFIELD    MOSUNNY   80  61  52 NW7       30.01R HX  81
TAYLORVILLE    NOT AVBL
$$

ILZ033-039-045-046-055>057-062-063-091800-
EAST-CENTRAL ILLINOIS

CITY           SKY/WX    TMP DP  RH WIND       PRES   REMARKS
CHAMPAIGN      MOSUNNY   76  59  55 NW8       29.99S
MATTOON        SUNNY     81  60  48 W10       29.99R HX  82
$$

ILZ079-100>102-091800-
SOUTHWEST ILLINOIS

CITY           SKY/WX    TMP DP  RH WIND       PRES   REMARKS
ALTON          SUNNY     79  68  69 CALM      30.01S HX  81
BELLEVILLE     MOSUNNY   83  65  52 NW8       30.00S HX  85
CAHOKIA*       MOSUNNY   84  61  45 NW8G17    30.00F HX  84
$$

ILZ064>066-069>071-074>076-080>082-084>086-088>090-092>094-091800-
SOUTH-CENTRAL ILLINOIS

CITY           SKY/WX    TMP DP  RH WIND       PRES   REMARKS
CARBONDALE     PTSUNNY   82  61  48 W9        30.01F HX  83
MARION         MOSUNNY   82  63  51 NW9       30.02F HX  83
MT. VERNON     MOSUNNY   82  63  51 W8        30.01F HX  83
$$

ILZ067-068-072-073-078-083-087-091-091800-
SOUTHEAST ILLINOIS

CITY           SKY/WX    TMP DP  RH WIND       PRES   REMARKS
$$

ABBREVIATIONS USED IN REMARKS
   TC - TEMPERATURE IN CELSIUS
  WCI - WIND CHILL INDEX
   HX - HEAT INDEX
  VSB - VISIBILITY
$$




USA.gov is the U.S. government's official web portal to all federal, state and local government web resources and services.